Location: Borgo
(42.3939°N, 9.2791°E)
Time: 02:09:23
(UTC+00:00)

CZ-2C R/B - Pass Details

Date: 24 January 2021
Orbit: 704 x 908 km, 98.1° (Epoch: 08 March)

Event Time Altitude Azimuth Distance (km) Brightness Sun altitude
Rises 18:06:03 0° 178° (S) 3,287 6.4 -18.3°
Reaches altitude 10° 18:08:22 10° 182° (S) 2,392 5.7 -18.7°
Maximum altitude 18:13:35 56° 261° (W) 999 3.9 -19.7°
Drops below altitude 10° 18:19:08 10° 339° (NNW) 2,534 5.8 -20.7°
Sets 18:21:39 0° 344° (NNW) 3,499 6.5 -21.1°
